{"data":{"norad_id":58604,"epoch":"2026-05-25T04:47:27.264768Z","epoch_age_seconds":54226,"freshness":"FRESH","line1":"1 58604U 23200R   26145.19962112  .00005626  00000+0  21385-3 0  9999","line2":"2 58604  43.0011  96.6099 0001234 256.6899 103.3815 15.27575294135319","mean_motion":15.27575294,"eccentricity":0.0001234,"inclination_deg":43.0011,"raan_deg":96.6099,"arg_perigee_deg":256.6899,"mean_anomaly_deg":103.3815,"bstar":0.00021385,"rev_number":13531,"period_min":94.26703912115,"perigee_km":482.21651542966,"apogee_km":483.90985963595,"semimajor_km":6861.2001875328,"source":"CELESTRAK","updated_at":"2026-05-25T13:38:18.702439Z"}}